www.pogodaiklimat.ru
ПОГОДА в Пангодах
Время
(UTC), дата
12 11.06
15 11.06
18 11.06
21 11.06
00 12.06
03 12.06
06 12.06
09 12.06
12 12.06
15 12.06
18 12.06
21 12.06
00 13.06
03 13.06
06 13.06
09 13.06
12 13.06
15 13.06
18 13.06
21 13.06
00 14.06
03 14.06
06 14.06
09 14.06
12 14.06
15 14.06
18 14.06
21 14.06
00 15.06
03 15.06
06 15.06
09 15.06
12 15.06
15 15.06
18 15.06
21 15.06
00 16.06
03 16.06
06 16.06
09 16.06
12 16.06
15 16.06
18 16.06
21 16.06
00 17.06
03 17.06
06 17.06
09 17.06
12 17.06
15 17.06
18 17.06
21 17.06
00 18.06
03 18.06
06 18.06
Ветер
(напр.,м/с)
Видим. Явления Облачность Т
(С)
Тd
(С)
f
(%)
Тe
(С)
Тes
(С)
Комфортность P
(гПа)
Po
(гПа)
Тmin
(С)
Tmax
(С)
R
(мм)
R24
(мм)
S
(см)
СЗ 4
{14}
50 км {ливн. дождь} 10/8 300 м
[Cb cap Ac cuf Cs]
+13.6 +10.4 81 +12 +12 1009.0 1002.8
СЗ 3 50 км 10/6 300 м
[Cb cap Ac cuf Ci fib]
+11.5 +7.3 75 +10 +10 1011.4 1005.1 +16.8 1
СЗ 1 50 км 10/10 300 м
[Cb cap]
+9.9 +7.3 84 +9 +9 1011.8 1005.5
З 1 н/о н/о +9.4 +7.4 87 +9 +9 1011.3 1005.0
З 2 н/о н/о +10.5 +9.1 91 +9 +9 1009.6 1003.3
З 3 10 км слаб. ливневой дождь 10/6 600 м
[Cb cap Ac cuf]
+12.1 +12.1 100 +10 +11 1008.0 1001.7 +9.0 2
СЗ 4
{11}
10 км слаб. дождь 10/6 300 м
[Sc Ac As]
+13.8 +13.7 99 +12 +13 1008.5 1002.3
СЗ 4
{10}
20 км {дождь} 10/5 300 м
[Cb cap Ac cuf]
+16.5 +13.1 80 +16 +17 1009.0 1002.9
СЗ 4-11
{13}
20 км {дождь} 10/10 300 м
[Cb cap]
+17.1 +11.2 68 +17 +17 1010.3 1004.1
С 3
{11}
50 км {дождь} 9/5 300 м
[Cu hum Ac trans Ci fib]
+13.8 +9.5 75 +13 +13 1012.7 1006.5 +18.0 1
С 1
{11}
50 км {дождь} 4/3 600 м
[Cu Sc Ci fib]
+7.9 +7.0 94 +7 +7 1014.6 1008.2
С 1 н/о н/о +6.5 +5.9 96 +5 +5 1016.6 1010.1
ЮВ 2 50 км 9/6 600 м
[Sc Ac trans Ci fib]
+5.9 +5.8 99 +3 +4 1017.4 1010.9
ЮЗ 2 50 км 3/3 600 м
[Cu med, cong Ci fib]
+11.0 +7.6 80 +10 +14 1017.7 1011.4 +5.9
ЮЗ 2 50 км 4/1 600 м
[Cu med, cong Ac cuf Ci fib]
+20.5 +10.8 54 +23 +32 комфорт 1016.3 1010.2
СЗ 2 50 км 9/5 600 м
[Cu med, cong Cc]
+26.2 +9.6 35 +27 +31 жарко 1015.1 1009.1
З 1 50 км 8/5 600 м
[Cu med, cong Ac cast Ci fib]
+24.9 +9.5 38 +26 +28 жарко 1014.9 1008.9
З 2 50 км 8/4 600 м
[Cu med, cong Cc]
+24.0 +11.6 46 +26 +26 жарко 1014.5 1008.5 +27.1
Ю 1 50 км 9/5 600 м
[Sc Ac cuf Ci fib]
+17.3 +12.6 74 +18 +18 1014.4 1008.2
В 2 50 км в посл. час ливневой дождь 9/8 300 м
[Cb cap Ac cuf Ci fib]
+15.4 +12.9 85 +15 +15 1013.8 1007.6
ЮЗ 1 50 км {ливн. дождь} 10/5 600 м
[Sc Ac As]
+16.1 +13.2 83 +17 +17 1012.7 1006.6
ЮЗ 2 50 км в посл. час ливневой дождь 9/8 300 м
[Cb cap Ac trans Ci fib]
+20.2 +15.1 72 +23 +24 комфорт 1011.7 1005.6 +14.9 1
З 4
{10}
50 км {ливн. дождь} 8/6 300 м
[Cu Sc Ac cuf Ci fib]
+25.2 +10.4 39 +26 +29 жарко 1010.4 1004.4
З 4
{11}
50 км 8/5 600 м
[Cb cap Ac cuf Ci fib]
+25.1 +11.9 44 +27 +29 жарко 1009.6 1003.6
З 3
{13}
50 км 8/6 600 м
[Cb cap Ac cuf]
+25.0 +11.5 43 +26 +27 жарко 1008.7 1002.7
СЗ 1 50 км 9/3 600 м
[Sc diur, vesp Ac lent]
+21.9 +12.6 56 +24 +25 комфорт 1008.1 1002.1 +27.1
штиль 0 50 км 8/5 600 м
[Cb cap Ac lent]
+17.5 +13.9 79 +17 +17 1007.0 1000.9
ЮЗ 1 50 км 6/1 600 м
[Cu hum Ac cuf Ci fib]
+14.6 +13.8 95 +15 +15 1005.9 999.7
ЮЗ 1 50 км 9/3 1000 м
[Cu hum Ac trans Cs]
+17.9 +15.4 85 +19 +20 1004.8 998.7
Ю 2 50 км 8/0
[Cc]
+20.3 +16.1 77 +24 +29 комфорт 1003.8 997.8 +14.2
ЮЗ 3 50 км 8/8 600 м
[Cu med, cong]
+27.2 +14.3 45 +29 +31 жарко 1001.7 995.9
ЮЗ 2 50 км 9/6 600 м
[Cb cap Ac cuf Cs]
+25.8 +14.3 49 +28 +31 жарко 1000.1 994.3
СЗ 2 20 км в посл. час ливневой дождь {гроза} 9/3 300 м
[Cb cap Ac cuf Cc]
+22.6 +16.3 68 +27 +29 душно 1000.4 994.4
СЗ 3 50 км {гроза, ливн. дождь} 10/8 300 м
[Cb cap Ac cuf Cc]
+17.9 +16.1 89 +18 +18 1001.3 995.3 +28.5 0.1
С 3
{10}
4000 м слаб. морось {гроза} 10/10 300 м
[St]
+10.3 +10.3 100 +8 +8 1003.2 997.0
С 3
{14}
20 км {морось} 10/10 300 м
[Sc]
+8.5 +7.2 92 +6 +6 1004.6 998.3
С 3
{11}
50 км {морось} 10/10 300 м
[Sc]
+9.0 +6.4 84 +7 +7 1005.4 999.1
С 2
{10}
50 км 10/10 300 м
[Sc]
+5.9 +4.7 92 +3 +3 1007.0 1000.6 +5.8 0.3
С 3
{10}
50 км {морось} 10/10 300 м
[Sc]
+6.9 +4.8 86 +4 +4 1007.9 1001.5 +5.7
С 3 50 км 10/10 300 м
[Sc]
+9.0 +5.9 81 +7 +7 1008.4 1002.1
СЗ 1 50 км 10/10 600 м
[Sc]
+12.5 +7.8 73 +13 +13 1008.2 1002.0
штиль 0 50 км 9/9 600 м
[Sc]
+14.4 +9.0 70 +14 +14 1007.3 1001.2 +14.4 0.0
С 1 50 км 8/5 600 м
[Sc Ac trans]
+12.2 +8.0 75 +12 +12 1007.3 1001.0
штиль 0 50 км н/о +5.8 +5.8 100 +5 +5 1006.0 999.6
ЮЗ 1 50 км 4/0
[Ci fib]
+10.2 +8.1 87 +10 +11 1004.9 998.7
Ю 2 50 км ясно +18.1 +5.2 43 +19 +25 1002.8 996.7 +5.3
ЮЗ 3 50 км 3/0
[Ci sp]
+22.1 +4.2 31 +22 +31 комфорт 1000.1 994.2
Ю 3 50 км 6/5 300 м
[Cu Sc Ci fib]
+23.8 +6.4 33 +24 +28 комфорт 998.0 992.0
ЮЗ 4
{10}
50 км 10/4 300 м
[Cb cap Ac cuf]
+23.1 +10.5 45 +25 +26 комфорт 996.7 990.8
С 3
{11}
2000 м ливневой дождь 10/10 300 м
[Cb cap]
+7.4 +7.4 100 +4 +4 1001.7 995.4 +24.9 4
С 4
{12}
4000 м слаб. ливневой дождь 10/10 300 м
[Cb cap]
+4.6 +4.4 99 0 0 1004.4 998.0
С 2
{12}
4000 м слаб. дождь 10/10 300 м
[Sc]
+3.4 +3.2 99 0 0 1005.6 999.2
С 3
{12}
50 км {ливн. дождь, дождь} 10/10 300 м
[Sc]
+3.9 +3.0 94 -0 -0 1006.5 1000.1
С 3
{12}
50 км 10/3 300 м
[Frnb Ac trans Cs]
+5.3 +1.9 79 +2 +4 1008.0 1001.6 +3.2 12
С 3-10
{12}
50 км 9/9 300 м
[Cb cap]
+8.2 +2.3 66 +6 +7 1008.6 1002.3
Местоположение метеостанции Пангоды (Ямало-Ненецкий АО, Россия): широта 65.83 долгота 74.50 высота над уровнем моря 52 м.
В архиве по умолчанию представлена погода в Пангодах за последнюю неделю. Архивные данные за месяц целиком и за предыдущие месяцы, начиная с января 2011 года, Вы можете получить, выбрав интересующий диапазон дат из раскрывающегося списка и нажав кнопку "Найти!".
*Определитесь, кто Вы:
Внимание! Время в таблицах - всемирное. Для получения местного времени необходимо прибавить поправку, которая равна 5 ч.
Смотрите также архив погоды в соседних городах и на ближайших метеорологических станциях:
Партнеры нашего сайта:      
Пояснения к столбцам:
  • Ветер - указаны скорость ветра в м/с - средняя за 10 мин, порывы в срок и между сроками (в фигурных скобках) и направление, откуда дует ветер: С - северный,
  • СВ - северо-восточный, В - восточный, ЮВ - юго-восточный, Ю - южный, ЮЗ - юго-западный, З - западный, СЗ - северо-западный.
  • Видимость - горизонтальная дальность видимости в метрах или километрах. При видимости от 1 до 10 км при отсутствии осадков обычно наблюдается дымка, при ухудшении видимости до 1 км и менее - туман. В сухую погоду видимость может ухудшаться дымом, пылью или мглою.
  • Явления - указаны атмосферные явления, наблюдавшиеся в срок или в последний час перед сроком; фигурными скобками обозначены явления, наблюдавшиеся между сроками (за 1-3 часа до срока); квадратными скобками обозначены град или гололедные отложения с указанием их диаметра в мм.
  • Облачность - указаны через наклонную черту общая и нижняя облачность в баллах и высота нижней границы облаков в метрах; квадратными скобками обозначены формы облаков: Ci - перистые, Cs - перисто-слоистые, Cc - перисто-кучевые, Ac - высококучевые, As - высокослоистые, Sc - слоисто-кучевые, Ns - слоисто-дождевые, Cu - кучевые, Cb - кучево-дождевые. Подробнее классификацию облаков см. в Атласе облаков (PDF).
  • T - Температура воздуха - температура, измеренная на высоте 2 м над землей.
  • Td - Температура точки росы - температура, при понижении до которой содержащийся в воздухе водяной пар достигнет насыщения.
  • f - Относительная влажность воздуха - влажноcть воздуха, измеренная на высоте 2 м над землей.
  • Te - Эффективная температура - температура, которую ощущает одетый по сезону человек в тени. Характеристика душности погоды. При расчете учитывается влияние влажности воздуха и скорости ветра на теплоощущения человека.
  • Tes - Эффективная температура на солнце - температура, которую ощущает человек, с поправкой на солнечный нагрев. Характеристика знойности погоды. Зависит от высоты солнца над горизонтом, облачности и скорости ветра. Ночью, в пасмурную погоду, а также при ветре 12 м/с и более поправка равна нулю.
  • P - Атмосферное давление - приведенное к уровню моря атмосферное давление.
  • Po - Атмосферное давление - измеренное на уровне метеостанции атмосферное давление.
  • Tmin - Минимальная температура - минимум температуры воздуха на высоте 2 м над землей.
  • Tmax - Максимальная температура - максимум температуры воздуха на высоте 2 м над землей.
  • R - Количество осадков - Количество выпавших осадков за период времени, мм. При наведении курсора мыши на число - период времени, за который выпало указанное количество осадков.
  • R24 - Количество осадков - Количество выпавших осадков за 24 часа, мм.
  • S - Снежный покров - Высота снежного покрова, см. При наведении курсора мыши на число - состояние снежного покрова и степень покрытия местности в баллах.